星链-1010 (STARLINK-1010 )

导读 | 星芒AI

STARLINK-1010 是 SpaceX Starlink 卫星互联网项目中的一颗低轨卫星,属于第二代 Starlink 卫星(Gen2)。它运行在约 550 公里的轨道高度,旨在为全球用户提供高速、低延迟的宽带互联网服务。该卫星采用先进通信技术,支持更高带宽和更广覆盖,有助于提升偏远地区的网络接入能力。作为 Starlink 计划的一部分,STARLINK-1010 与其他数千颗卫星协同工作,构建全球卫星互联网网络。

基本信息
目录编号:
44716
目录名称:
STARLINK-1010
国际标识:
2019-074D
轨道中心:
EARTH
卫星名称:
星链-1010
卫星全名:
星链-1010 (STARLINK-1010 )
卫星状态:
在轨 (已飞行2179 天)
发射日期:
2019-11-11 UTC
国别 :
美国 (US)
星等 :
--
轨道信息
数据来源 国际轨道数据
星历时间: 2025-10-29T00:00:07+0800
15小时前
查看轨道信息
半长轴: 6660.786km
偏心率: 0.0005372
轨道倾角: 53.043°
近地点辐角 49.865°
升交点赤经 346.545°
平近点角 228.317°
近地点: 279.072km
远地点: 286.23km
周期: 90.167分钟
每日圈数: 15.970356
详细信息
固有亮度:
5
最大亮度:
2.5
卫星平台:
Starlink V1.0
覆盖范围:
全球
运营商:
太空探索技术公司
运营商所在国:
美国
制造商(研发单位):
太空探索技术公司
制造商所在国:
美国
使用方式:
暂无
卫星简介
星链(Starlink)计划是由太空探索技术公司(SpaceX)提出的一个巨型低轨卫星互联网星座项目,计划在2019年至2024年间在太空搭建由约1.2万颗卫星组成的“星链”网络,其中1584颗将部署在地球上空550千米处的近地轨道,并从2020年开始工作。该卫星仍在工作。
2D轨道图
3D轨道图
轨道高度分析图
轨道倾角分析图
轨道综合分析图
查看轨道综合分析图